Location: Aula-Vintri
(58.3875°N, 22.4322°E)
Time: 19:05:10
(UTC+00:00)

CZ-2D R/B - Pass Details

Date: 13 October 2019
Orbit: 791 x 845 km, 98.6° (Epoch: 14 November)

Event Time Altitude Azimuth Distance (km) Brightness Sun altitude
Rises 23:10:31 0° 22° (NNE) 3,307 6.2 -38.5°
Reaches altitude 10° 23:13:20 10° 37° (NE) 2,372 5.2 -38.4°
Enters shadow 23:15:28 19° 58° (ENE) 1,834 4.3 -38.3°
